Regional Weather Roundup
Issued by NWS

Home | Current Version | Previous Version | Text Only | Print | Product List | Glossary On
Versions: 1 2 3 4 5 6 7 8 9 10 11 12 13 14 15 16 17 18 19 20 21 22 23 24 25 26 27 28 29 30 31 32 33 34 35 36 37 38 39 40 41 42 43 44 45 46 47 48 49 50
000
ASUS45 KBOU 200510
RWRCO

WEATHER ROUNDUP FOR COLORADO
NATIONAL WEATHER SERVICE PUEBLO CO
1100 PM MDT THU APR 19 2018

NOTE: "FAIR" INDICATES FEW OR NO CLOUDS BELOW 12000 FEET WITH NO
SIGNIFICANT WEATHER AND/OR OBSTRUCTIONS TO VISIBILITY.

COZ001>005-013-030-031-200600-
...NORTHWEST COLORADO...

CITY           SKY/WX    TMP DP  RH WIND       PRES   REMARKS
CRAIG          CLOUDY    55  29  36 SW10      29.83F
HAYDEN         CLOUDY    52  30  43 SE21      29.88S
MEEKER         CLOUDY    55  29  36 SE22G35   29.82F
RABBIT EARS PA NOT AVBL
STEAMBOAT SPGS MOCLDY    50  29  43 E5        29.90S
WALDEN         CLOUDY    45  19  36 S8        29.98F
$$

COZ006>008-011-200600-
...WEST CENTRAL VALLEYS...

CITY           SKY/WX    TMP DP  RH WIND       PRES   REMARKS
GRAND JUNCTION CLOUDY    65  27  23 SE22      29.66F
MONTROSE       CLOUDY    58  28  32 SE32G43   29.78F
EAGLE          CLOUDY    56  23  27 E18G25    29.87F
RIFLE          CLOUDY    59  29  31 SE9       29.78F
DELTA          NOT AVBL
NUCLA          MOCLDY    61   5  11 SW21      29.78R
$$

COZ017>023-064>068-200600-
...SOUTHWEST COLORADO...

CITY           SKY/WX    TMP DP  RH WIND       PRES   REMARKS
DURANGO        CLOUDY    56  23  27 SE22G28   29.83F
CORTEZ         CLOUDY    59   6  12 SW17G28   29.79R
PAGOSA SPRINGS CLOUDY    52  19  27 SE17G26   29.94F
TELLURIDE      MIX PCPN  45  26  47 SE14G25   29.93F
WOLF CREEK PAS CLOUDY    32  19  59 SE28G48   30.11F WCI  18
$$

COZ009-010-012-014-032>034-037-058>063-200600-
...CENTRAL COLORADO...

CITY           SKY/WX    TMP DP  RH WIND       PRES   REMARKS
ASPEN          CLOUDY    51  23  33 S14       29.91F
BUENA VISTA    FAIR      51  15  23 SE20G26   29.99F
COPPER MTN     NOT AVBL
BERTHOUD PASS  FAIR      27  16  63 S39G53    30.14F WCI   8
COTTONWOOD PAS CLOUDY    48  18  29 SE24G33   30.05F
GUNNISON       CLOUDY    45  29  53 W9        29.97F
KREMMLING      CLOUDY    54  19  26 SE9       29.94F
LEADVILLE      CLOUDY    36  24  62 SW10      30.06S
MONARCH PASS   CLOUDY    32  18  55 S17G26    30.25F WCI  21
SALIDA         FAIR      54  17  23 S17G33    30.07R
SUNLIGHT       CLOUDY    34  23  64 SE13G28   30.04F WCI  25
WILKERSON PASS CLOUDY    34  12  40 S10G20    30.17S WCI  26
$$

COZ069>075-200600-
...SAN LUIS VALLEY/SANGRE DE CRISTO MOUNTAINS...

CITY           SKY/WX    TMP DP  RH WIND       PRES   REMARKS
ALAMOSA        MOCLDY    46  21  37 SE12      30.00F
DEL NORTE      MOCLDY    47  20  33 SE14G20   30.00F
LA VETA PASS   MOCLDY    37  18  44 SW7       30.23F
SAGUACHE       NOT AVBL
$$

COZ035-036-038>040-200600-
...NORTHERN COLORADO FRONT RANGE...

CITY           SKY/WX    TMP DP  RH WIND       PRES   REMARKS
DENVER INTL AP MOCLDY    52  21  29 SE29G37   29.96S
DMNS CITY PARK NOT AVBL
AURORA         MOCLDY    49  20  32 E10       29.95F
FRONT RANGE AP FAIR      54  21  27 SE30G43   29.96F
ERIE MUNI ARPT FAIR      58  17  20 S9G21     29.99S
BOULDER MUN AP FAIR      48  23  37 N6        29.94F
CENTENNIAL     MOCLDY    53  23  31 S23G43    29.94F
BROOMFIELD     MOCLDY    55  19  24 SE12G24   29.95F
LOVELAND       MOCLDY    50  22  33 E16       29.97S
LONGMONT       FAIR      48  24  38 N9        29.97S
$$

COZ041-046-047-076>085-087-088-200600-
...PIKES PEAK/PALMER DIVIDE AND SOUTHERN FOOTHILLS...

CITY           SKY/WX    TMP DP  RH WIND       PRES   REMARKS
COLO. SPRINGS  PTCLDY    52  23  32 SE17      30.02F
A. F. ACADEMY  PTCLDY    50  19  30 SE15G23   30.02S
SCHRIEVER AFB  NOT AVBL
CHEYENNE MTN   NOT AVBL
ELLICOTT         N/A    N/A N/A N/A SE21      30.01F
FALCON         FAIR      44  17  34 E12       30.07S
FORT CARSON    MOCLDY    53  22  30 SE9       29.99F
LIMON          MOCLDY    47  21  35 SE31G48   30.05F
MONUMENT HILL  PTCLDY    43  19  39 SE23G33   30.03S
CANON CITY     FAIR      55  23  28 N16       29.93S
WALSENBURG     FAIR      55  25  30 S24G31    30.00S
TRINIDAD       CLOUDY    56  23  27 S24G44    30.05F
$$

COZ042>045-048>051-090-091-200600-
...NORTHEAST COLORADO...

CITY           SKY/WX    TMP DP  RH WIND       PRES   REMARKS
GREELEY ARPT   PTCLDY    48  24  39 E20G26    29.98S
AKRON          MOCLDY    45  26  47 SE25G38   30.08S
BURLINGTON     MOCLDY    45  26  47 SE23G32   30.14S
WRAY           FAIR      45  27  49 SE18      30.16S
YUMA           NOT AVBL
STERLING       NOT AVBL
HOLYOKE        FAIR      46  25  42 SE23G29   30.17S
FORT MORGAN    FAIR      47  23  38 E24G30    30.05F
$$

COZ086-089-092>099-200600-
...SOUTHEAST COLORADO...

CITY           SKY/WX    TMP DP  RH WIND       PRES   REMARKS
PUEBLO         MOCLDY    61  26  26 SE17G26   29.95S
LA JUNTA       CLOUDY    53  21  28 SE8       30.04S
LAMAR          CLOUDY    50  24  36 SE15      30.10S
SPRINGFIELD      N/A     51  23  33 S25G36    30.13S
$$




USA.gov is the U.S. government's official web portal to all federal, state and local government web resources and services.